User: anonymous   Login
Location: Unspecified
(0.0000°N, 0.0000°E)
Time: 19:32:01
(UTC+02:00)
Language:

Meteor PRIRODA - Orbit

View from above orbital plane
View from above orbital plane
View from above satellite
View from above satellite

Ground track
Ground track

The orbit data is extracted from the following two-line orbital elements,

1 12585U 81065A   17228.45565382  .00000528  00000-0  27325-4 0  9997
2 12585  97.4360 206.9112 0014601 182.8834 177.2320 15.20409204971421
Epoch (UTC): 16 August 2017 10:56:08
Eccentricity: 0.0014601
inclination: 97.4360°
perigee height: 494 km
apogee height: 514 km
right ascension of ascending node: 206.9112°
argument of perigee: 182.8834°
revolutions per day: 15.20409204
mean anomaly at epoch: 177.2320°
orbit number at epoch: 97142

The dashed part of the orbit path shows where the satellite is in the earth's shadow,  

DLR